Weather History for KAZC - November, 2013

Change the Weather History Date:

Thursday, November 7, 2013

  Actual Average (KCDC) Record (KCDC)
Temperature  
Mean Temperature 48 °F 41 °F  
Max Temperature 67 °F 56 °F 75 °F (2006)
Min Temperature 30 °F 27 °F 17 °F (1996)
Degree Days  
Heating Degree Days 16 24  
Month to date heating degree days 158  
Since 1 July heating degree days 777  
Cooling Degree Days 0 0  
Month to date cooling degree days 0  
Year to date cooling degree days 588  
Moisture  
Dew Point 21 °F    
Average Humidity 41    
Maximum Humidity 76    
Minimum Humidity 13    
Precipitation  
Precipitation 0.00 in 0.03 in 0.55 in (1963)
Month to date precipitation 0.25  
Year to date precipitation 9.79  
Sea Level Pressure  
Sea Level Pressure 30.34 in    
Wind  
Wind Speed 7 mph (ESE)    
Max Wind Speed 15 mph    
Max Gust Speed 22 mph    
Visibility 10 miles    
Events      
T = Trace of Precipitation, MM = Missing Value Source: NWS Daily Summary

Daily Weather History Graph

Daily Weather History Graph

Search for Another Location

Airport or City:

Trip Planner

Search our weather history database for the weather conditions in past years. The results will help you decide how hot, cold, wet, or windy it might be!

Date:

Astronomy

Nov. 07, 2013 Rise Set
Actual Time 7:02 AM MST 5:28 PM MST
Civil Twilight 6:35 AM MST 5:55 PM MST
Nautical Twilight 6:04 AM MST 6:26 PM MST
Astronomical Twilight 5:33 AM MST 6:57 PM MST
Moon 11:13 AM MST (11/7) 9:45 PM MST (11/7)
Length of Visible Light 11h 20m
Length of Day
10h 25m
Waxing Crescent, 23% of the Moon is Illuminated
Nov 7
Waxing Crescent
Nov 9
First Quarter
Nov 17
Full
Nov 25
Last Quarter
Dec 2
New

Hourly Weather History & Observations

Time (MST) Temp. Windchill Dew Point Humidity Pressure Visibility Wind Dir Wind Speed Gust Speed Precip Events Conditions
12:35 AM 32.9 °F 25.9 °F 26.1 °F 76% 30.44 in 10.0 mi SE 8.1 mph - N/A   Clear
12:55 AM 33.8 °F 28.6 °F 25.5 °F 72% 30.44 in 10.0 mi ESE 5.8 mph - N/A   Clear
1:15 AM 32.9 °F 26.7 °F 24.8 °F 72% 30.43 in 10.0 mi SE 6.9 mph - N/A   Clear
1:35 AM 32.9 °F 27.5 °F 24.3 °F 71% 30.42 in 10.0 mi SE 5.8 mph - N/A   Clear
1:55 AM 32.4 °F 26.9 °F 23.9 °F 71% 30.42 in 10.0 mi SE 5.8 mph - N/A   Clear
2:15 AM 31.8 °F 27.3 °F 23.7 °F 72% 30.43 in 10.0 mi SE 4.6 mph - N/A   Clear
2:35 AM 31.5 °F 26.8 °F 23.4 °F 72% 30.43 in 10.0 mi SSE 4.6 mph - N/A   Clear
2:55 AM 31.1 °F - 23.5 °F 74% 30.43 in 10.0 mi Calm Calm - N/A   Clear
3:15 AM 31.8 °F 27.3 °F 23.2 °F 70% 30.42 in 10.0 mi SE 4.6 mph - N/A   Clear
3:35 AM 31.3 °F 26.6 °F 23.0 °F 71% 30.42 in 10.0 mi SE 4.6 mph - N/A   Clear
3:55 AM 30.4 °F 25.6 °F 23.0 °F 74% 30.41 in 10.0 mi ESE 4.6 mph - N/A   Clear
4:15 AM 31.1 °F - 23.5 °F 74% 30.41 in 10.0 mi Calm Calm - N/A   Clear
4:35 AM 31.5 °F 28.1 °F 23.5 °F 73% 30.41 in 10.0 mi SSE 3.5 mph - N/A   Clear
4:55 AM 33.4 °F 30.4 °F 23.0 °F 66% 30.41 in 10.0 mi South 3.5 mph - N/A   Clear
5:15 AM 34.2 °F 30.0 °F 22.3 °F 62% 30.42 in 10.0 mi SE 4.6 mph - N/A   Clear
5:35 AM 35.1 °F - 21.9 °F 59% 30.41 in 10.0 mi Calm Calm - N/A   Clear
5:55 AM 38.8 °F 31.2 °F 20.5 °F 48% 30.41 in 10.0 mi NE 12.7 mph - N/A   Clear
6:15 AM 45.7 °F 40.6 °F 17.2 °F 32% 30.40 in 10.0 mi ENE 10.4 mph 16.1 mph N/A   Clear
6:35 AM 46.0 °F 40.2 °F 16.3 °F 30% 30.40 in 10.0 mi NE 12.7 mph 18.4 mph N/A   Clear
6:55 AM 46.6 °F - 15.8 °F 29% 30.41 in 10.0 mi NE 15.0 mph 18.4 mph N/A   Clear
7:15 AM 46.6 °F - 15.8 °F 29% 30.41 in 10.0 mi ENE 11.5 mph - N/A   Clear
7:35 AM 47.5 °F - 15.8 °F 28% 30.41 in 10.0 mi ENE 12.7 mph 18.4 mph N/A   Clear
7:55 AM 49.3 °F - 15.8 °F 26% 30.41 in 10.0 mi ENE 11.5 mph 20.7 mph N/A   Clear
8:15 AM 50.7 °F - 15.8 °F 25% 30.42 in 10.0 mi NE 12.7 mph 18.4 mph N/A   Clear
8:35 AM 51.8 °F - 15.8 °F 24% 30.42 in 10.0 mi NE 15.0 mph - N/A   Clear
8:55 AM 53.1 °F - 15.6 °F 23% 30.42 in 10.0 mi NE 12.7 mph 21.9 mph N/A   Clear
9:15 AM 54.0 °F - 16.3 °F 23% 30.42 in 10.0 mi NE 11.5 mph 18.4 mph N/A   Clear
9:35 AM 55.9 °F - 16.3 °F 21% 30.41 in 10.0 mi NE 8.1 mph - N/A   Clear
9:55 AM 57.4 °F - 16.2 °F 20% 30.41 in 10.0 mi NE 11.5 mph 17.3 mph N/A   Clear
10:15 AM 57.9 °F - 16.2 °F 20% 30.41 in 10.0 mi NNE 6.9 mph - N/A   Clear
10:35 AM 59.2 °F - 16.2 °F 19% 30.40 in 10.0 mi ENE 5.8 mph - N/A   Clear
10:55 AM 59.9 °F - 15.6 °F 18% 30.39 in 10.0 mi NNE 8.1 mph - N/A   Clear
11:15 AM 60.8 °F - 15.3 °F 17% 30.39 in 10.0 mi East 4.6 mph - N/A   Clear
11:35 AM 62.8 °F - 15.8 °F 16% 30.38 in 10.0 mi East 3.5 mph - N/A   Clear
11:55 AM 63.7 °F - 15.6 °F 16% 30.37 in 10.0 mi ESE 11.5 mph - N/A   Clear
12:15 PM 64.4 °F - 15.1 °F 15% 30.35 in 10.0 mi East 11.5 mph 18.4 mph N/A   Clear
12:35 PM 65.5 °F - 15.6 °F 15% 30.34 in 10.0 mi East 11.5 mph - N/A   Clear
12:55 PM 65.8 °F - 16.3 °F 15% 30.33 in 10.0 mi East 5.8 mph - N/A   Clear
1:15 PM 66.6 °F - 16.5 °F 15% 30.31 in 10.0 mi SSE 8.1 mph - N/A   Clear
1:35 PM 66.9 °F - 15.4 °F 14% 30.30 in 10.0 mi SE 6.9 mph - N/A   Clear
1:55 PM 66.6 °F - 15.4 °F 14% 30.30 in 10.0 mi East 5.8 mph - N/A   Clear
2:15 PM 67.5 °F - 14.9 °F 13% 30.29 in 10.0 mi SE 5.8 mph - N/A   Clear
2:35 PM 67.8 °F - 15.1 °F 13% 30.28 in 10.0 mi SE 9.2 mph - N/A   Clear
2:55 PM 67.8 °F - 15.3 °F 13% 30.28 in 10.0 mi SSE 9.2 mph - N/A   Clear
3:35 PM 65.5 °F - 15.6 °F 15% 30.27 in 10.0 mi SSE 8.1 mph - N/A   Clear
3:55 PM 64.0 °F - 16.0 °F 16% 30.27 in 10.0 mi SE 9.2 mph - N/A   Clear
4:15 PM 63.5 °F - 16.3 °F 16% 30.26 in 10.0 mi SE 6.9 mph - N/A   Clear
4:35 PM 62.2 °F - 18.0 °F 18% 30.26 in 10.0 mi SE 5.8 mph - N/A   Clear
4:55 PM 60.1 °F - 19.6 °F 21% 30.26 in 10.0 mi ESE 5.8 mph - N/A   Clear
5:15 PM 57.2 °F - 21.0 °F 25% 30.26 in 10.0 mi East 3.5 mph - N/A   Clear
5:35 PM 56.1 °F - 22.8 °F 28% 30.24 in 10.0 mi East 4.6 mph - N/A   Clear
5:55 PM 53.2 °F - 23.7 °F 32% 30.25 in 10.0 mi SE 3.5 mph - N/A   Clear
6:15 PM 50.2 °F - 25.0 °F 37% 30.25 in 10.0 mi Calm Calm - N/A   Clear
6:35 PM 47.3 °F - 26.1 °F 44% 30.24 in 10.0 mi Calm Calm - N/A   Clear
6:55 PM 46.8 °F - 26.1 °F 44% 30.24 in 10.0 mi East 3.5 mph - N/A   Clear
7:15 PM 45.0 °F - 26.1 °F 48% 30.25 in 10.0 mi Calm Calm - N/A   Clear
7:35 PM 44.8 °F 41.0 °F 25.9 °F 48% 30.25 in 10.0 mi South 6.9 mph - N/A   Clear
7:55 PM 44.2 °F 41.0 °F 25.9 °F 49% 30.24 in 10.0 mi SSE 5.8 mph - N/A   Clear
8:15 PM 43.7 °F 41.1 °F 25.7 °F 49% 30.24 in 10.0 mi SSE 4.6 mph - N/A   Clear
8:35 PM 44.1 °F 41.5 °F 25.3 °F 48% 30.24 in 10.0 mi SE 4.6 mph - N/A   Clear
8:55 PM 42.8 °F 40.1 °F 25.3 °F 50% 30.24 in 10.0 mi SSE 4.6 mph - N/A   Clear
9:15 PM 42.4 °F 40.7 °F 25.0 °F 50% 30.24 in 10.0 mi SSE 3.5 mph - N/A   Clear
9:35 PM 41.0 °F - 24.8 °F 53% 30.24 in 10.0 mi Calm Calm - N/A   Clear
9:55 PM 39.7 °F 34.9 °F 24.8 °F 55% 30.25 in 10.0 mi SSE 6.9 mph - N/A   Clear
10:15 PM 41.7 °F 38.0 °F 24.8 °F 51% 30.25 in 10.0 mi ESE 5.8 mph - N/A   Clear
10:35 PM 38.5 °F 33.4 °F 25.3 °F 59% 30.25 in 10.0 mi SE 6.9 mph - N/A   Clear
10:55 PM 35.8 °F 30.9 °F 25.0 °F 65% 30.24 in 10.0 mi SE 5.8 mph - N/A   Clear
11:15 PM 35.2 °F 29.5 °F 24.8 °F 66% 30.24 in 10.0 mi SE 6.9 mph - N/A   Clear
11:35 PM 34.9 °F 30.8 °F 25.0 °F 67% 30.24 in 10.0 mi SE 4.6 mph - N/A   Clear
11:55 PM 35.2 °F 31.2 °F 25.5 °F 68% 30.23 in 10.0 mi SSE 4.6 mph - N/A   Clear